SCP
0 0 0 0 0 1 1 0 0 0 0 0 0 0 0 0 0 0 0 0 0 0 0 0 0 0 0 0 0 0 0 0 0 0 0 0 0 0 0 0 0 0 0
0 0 0 0 0 1 1 0 0 0 0 0 0 0 0 0 0 0 0 0 0 0 0 0 0 0 0 0 0 0 0 0 0 0 0 0 0 0 0 0 0 0 0
0 0 0 0 1 1 1 0 0 0 0 0 0 0 0 0 0 0 0 0 0 0 0 0 0 0 0 0 0 0 0 0 0 0 0 0 0 0 0 0 0 0 0
0 0 0 1 1 1 0 0 0 0 0 0 0 0 0 0 0 0 0 0 0 0 0 0 0 0 0 0 0 0 0 0 0 0 0 0 0 0 0 0 0 0 0
0 0 0 1 1 0 0 0 0 0 0 0 0 0 0 0 0 0 0 0 0 0 0 0 0 0 0 0 0 0 0 0 0 0 0 0 0 0 0 0 0 0 0
0 0 0 0 0 0 0 0 0 0 0 0 0 0 0 0 0 0 0 0 0 0 0 0 0 0 0 0 0 0 0 0 0 0 0 0 0 0 0 0 0 0 0
0 0 0 0 0 1 1 1 0 0 0 0 0 0 0 0 0 0 0 0 0 0 0 0 0 0 0 0 0 0 0 0 0 0 0 0 0 0 0 0 0 0 0
0 0 1 1 1 1 1 1 1 1 0 0 0 0 0 0 0 0 0 0 0 0 0 0 0 0 0 0 0 0 0 0 0 0 0 0 0 0 0 0 0 0 0
0 1 1 1 1 1 1 1 1 1 1 0 0 0 0 0 0 0 0 0 0 0 0 0 0 0 0 0 0 0 0 0 0 0 0 0 0 0 0 0 0 0 0
1 1 1 1 1 1 1 1 1 1 1 1 0 0 0 0 0 0 0 0 0 0 0 0 0 0 0 0 0 0 0 0 0 0 0 0 0 0 0 0 0 0 0
1 1 1 1 1 1 1 1 1 1 1 1 1 0 0 0 0 0 0 0 0 0 0 0 0 0 0 0 0 0 0 0 0 0 0 0 0 0 0 0 0 0 0
1 1 1 1 1 1 1 1 1 1 1 1 1 1 0 0 0 0 0 0 0 0 0 0 0 0 0 0 0 0 0 0 0 0 0 0 0 0 0 0 0 0 0
1 1 1 1 1 1 1 1 1 1 1 1 1 1 1 0 0 0 0 0 0 0 0 0 0 0 0 0 0 0 0 0 0 0 0 0 0 0 0 0 0 0 0
1 1 1 1 1 1 1 1 1 1 1 1 1 1 1 1 1 1 1 1 1 1 1 1 1 0 0 0 0 0 0 0 0 0 0 0 0 0 0 0 0 0 0
1 1 1 1 1 1 1 1 1 1 1 1 1 1 1 1 1 1 1 1 1 1 1 1 1 1 1 0 0 0 0 0 0 0 0 0 0 0 0 0 0 0 0
1 1 1 1 1 1 1 1 1 1 1 1 1 1 1 1 1 1 1 1 1 1 1 1 1 1 1 1 0 0 0 0 0 0 0 0 0 0 0 0 0 0 0
1 1 1 1 1 1 1 1 1 1 1 1 1 1 1 1 1 1 1 1 1 1 1 1 1 1 1 1 0 0 0 0 0 0 0 0 0 0 0 0 0 0 0
1 1 1 1 1 1 1 1 1 1 1 1 1 1 1 1 1 1 1 1 1 1 1 1 1 1 1 1 0 0 0 0 0 0 0 0 0 0 0 0 0 0 0
1 1 1 1 1 1 1 1 1 1 1 1 1 1 1 1 1 1 1 1 1 1 1 1 1 1 1 1 0 0 0 0 0 0 0 0 0 0 0 0 0 0 0
1 1 1 1 1 1 1 1 1 1 1 1 1 1 1 1 1 1 1 1 1 1 1 1 1 1 1 1 0 0 0 1 0 0 0 0 0 0 0 0 0 0 0
1 1 1 1 1 1 1 1 1 1 1 1 1 1 1 1 1 1 1 1 1 1 1 1 1 1 0 0 0 0 0 1 1 1 1 0 0 0 0 0 0 0 0
1 1 1 1 1 1 1 1 1 1 1 1 1 1 1 1 1 1 1 1 1 1 1 1 0 0 0 0 0 0 0 0 1 1 1 1 0 0 0 0 0 0 0
1 1 1 1 1 1 1 1 1 1 1 1 1 1 1 1 1 1 1 1 1 1 1 1 0 0 0 0 0 0 0 0 0 1 1 1 0 0 0 0 0 0 0
1 1 1 1 1 1 1 1 1 1 1 1 1 1 1 1 1 1 1 1 1 1 1 1 1 1 1 1 0 0 0 0 0 0 0 0 0 0 0 0 0 0 0
1 1 1 1 1 1 1 1 1 1 1 1 1 1 1 1 1 1 1 1 1 1 1 1 1 1 1 1 0 0 0 0 0 0 0 0 0 0 0 0 0 0 0
1 1 1 1 1 1 1 1 1 1 1 1 1 1 1 1 1 1 0 0 0 0 0 0 1 1 0 0 0 0 0 0 0 0 0 0 0 0 0 0 0 0 0
Wind_Speed
10 10 10 10 9 7 6 6 5 5 4 3 2 2 1 1 1 1 2 2 2 2 2 1 1 1 1 1 1 1 1 1 1 2 2 2 1 0 1 1 1 2 2
9 10 10 10 9 9 7 7 6 5 5 3 3 2 2 2 2 1 1 2 2 2 2 2 1 1 1 1 1 1 1 0 1 2 1 1 3 2 1 1 0 1 1
14 12 11 10 10 10 9 8 7 6 5 4 3 2 1 1 1 0 1 1 2 3 2 2 2 2 2 1 1 1 2 0 1 1 3 2 2 1 2 2 1 1 1
13 12 12 11 12 11 10 8 8 6 5 5 4 4 3 2 3 2 2 1 2 2 2 2 2 2 1 1 1 1 1 2 0 1 0 2 3 2 1 2 2 1 1
14 14 14 13 12 11 10 8 8 7 6 5 5 4 3 2 2 1 1 1 1 2 2 2 2 2 1 1 1 0 1 1 1 1 0 0 1 1 2 1 2 2 1
12 12 12 11 9 9 9 9 8 7 6 6 5 5 5 4 3 2 2 2 1 1 2 2 2 2 1 1 1 1 1 1 1 1 1 2 2 2 2 2 1 1 2
11 11 11 11 10 10 10 9 9 7 7 7 6 6 5 5 5 4 3 3 2 2 2 2 2 2 2 2 2 1 1 1 1 1 1 1 2 2 2 2 1 1 1
12 12 14 13 13 13 12 10 10 8 8 7 6 5 5 4 3 4 3 3 3 3 3 3 3 3 2 2 1 1 1 1 1 1 1 1 2 2 3 3 3 1 1
13 13 13 13 12 13 13 12 11 9 8 7 6 5 5 4 4 3 3 3 3 3 3 3 3 3 2 2 2 1 1 1 1 1 1 1 2 1 2 2 3 4 2
10 11 12 13 12 12 11 11 11 10 9 8 7 6 5 5 5 4 4 3 3 2 2 2 2 2 2 2 2 1 1 1 1 1 1 1 1 1 1 2 2 2 3
9 10 10 11 11 10 10 10 10 9 8 8 7 6 5 6 5 4 4 4 3 3 3 3 3 3 2 2 2 2 2 2 2 2 2 2 2 1 1 1 1 2 2
10 9 10 10 10 10 9 9 9 9 9 8 7 7 6 5 5 5 4 4 4 3 4 3 3 3 3 2 3 3 2 2 2 2 2 2 1 1 1 1 1 2 2
7 8 9 9 10 10 9 9 9 9 8 8 8 7 6 6 6 6 5 4 4 4 4 3 3 3 3 3 3 3 3 3 3 2 2 2 2 2 2 2 1 1 2
8 8 9 8 8 8 8 9 9 9 8 8 8 8 8 8 7 6 5 5 5 4 4 4 4 4 3 3 3 3 2 2 2 2 3 3 3 3 3 2 2 2 2
6 7 8 8 7 7 7 7 8 8 8 8 8 8 8 7 6 5 5 5 5 5 4 4 3 3 3 3 3 3 3 3 2 2 3 3 3 4 3 2 2 3 2
6 6 6 7 7 7 6 6 6 7 7 8 8 8 6 6 6 6 5 5 5 4 4 4 4 3 3 3 5 4 3 3 3 2 2 2 2 3 3 4 5 5 5
6 6 7 8 8 8 8 7 6 5 6 7 7 6 6 6 6 6 5 5 5 4 3 4 3 3 4 4 4 5 3 2 2 2 2 2 1 2 2 3 3 4 5
5 6 6 7 6 6 6 6 6 6 6 6 6 5 5 5 5 5 5 4 3 3 3 3 3 3 3 4 4 5 3 2 2 2 2 2 2 2 2 2 2 2 3
5 5 5 6 5 6 7 7 6 6 5 5 5 5 6 5 5 5 5 4 3 3 3 3 4 3 3 4 4 5 2 2 2 2 2 2 2 2 3 2 2 2 3
4 3 3 4 5 5 6 7 6 6 6 6 6 6 5 5 6 6 5 3 3 4 3 3 3 3 3 3 4 5 2 2 2 2 2 3 3 2 3 3 2 3 4
4 4 4 4 4 5 7 7 6 6 5 4 5 5 5 5 5 4 3 3 3 2 2 2 2 3 3 3 5 5 3 3 3 2 2 2 3 3 4 3 3 5 4
4 4 4 3 3 4 6 6 6 5 4 4 4 4 4 4 3 3 3 3 3 3 3 2 2 2 2 3 4 6 6 5 4 4 3 3 4 4 4 3 4 4 2
3 3 4 3 2 4 5 5 4 4 4 4 4 3 4 3 3 3 3 2 2 3 2 2 2 2 2 2 5 6 7 6 4 3 3 3 3 3 2 4 4 3 1
3 3 4 4 3 3 3 4 3 4 4 4 4 4 4 3 2 2 3 3 3 3 3 3 3 3 2 2 2 2 3 3 3 2 1 1 1 1 2 3 3 3 2
3 3 4 4 4 4 3 4 4 5 5 4 4 3 3 4 3 2 2 3 4 4 4 4 4 3 4 5 5 4 3 3 3 3 1 0 0 1 1 2 2 2 2
3 3 3 3 3 4 3 4 5 6 6 5 4 4 4 3 3 2 1 1 1 3 5 5 5 4 5 5 5 5 5 5 4 3 1 2 2 2 3 2 2 2 2
Wind_Direction
181 175 171 167 160 159 156 157 158 162 150 138 142 141 157 177 169 179 186 166 151 141 130 132 100 113 120 141 112 91 67 37 75 73 28 2 357 301 252 224 177 181 193
177 175 172 168 165 167 166 165 169 169 164 161 160 164 165 180 184 190 182 179 155 152 158 161 163 148 127 91 88 92 95 21 102 118 100 15 352 348 356 351 158 157 154
181 179 175 175 171 172 174 174 176 173 174 165 142 131 90 57 57 211 217 208 177 170 171 175 157 149 153 170 195 151 133 164 288 142 143 147 218 308 341 2 34 45 70
181 180 177 177 177 179 175 172 173 172 174 165 156 159 165 180 206 202 205 210 192 182 178 169 156 159 161 177 222 177 153 144 228 293 192 171 167 163 307 335 346 5 30
183 183 181 180 179 177 175 174 170 172 172 167 169 169 174 187 191 181 182 194 205 199 186 177 158 163 170 183 210 193 169 169 177 200 210 100 89 151 158 261 312 343 338
185 185 183 175 174 175 176 175 172 177 175 172 171 174 179 180 171 186 191 201 216 227 214 188 184 185 186 201 208 207 198 207 198 197 192 182 175 189 163 195 252 284 301
179 181 180 175 175 178 180 179 177 180 181 179 182 183 182 180 184 192 191 188 200 216 226 208 203 202 205 205 196 197 221 214 211 211 208 204 201 179 163 163 202 243 274
182 185 185 183 184 183 184 182 183 184 183 185 191 189 181 180 190 193 188 192 199 207 209 208 209 210 205 201 191 196 231 216 220 225 211 206 218 186 174 176 166 180 291
183 188 186 184 186 185 185 183 183 184 186 187 185 187 184 179 190 195 189 192 195 199 203 205 202 205 201 197 190 199 237 214 226 231 226 226 240 215 196 184 174 166 189
179 185 186 185 187 187 185 183 183 185 185 185 186 185 187 187 191 187 195 196 197 196 185 204 205 206 207 201 192 207 229 212 242 235 232 248 247 234 196 185 184 170 166
184 185 185 187 185 182 181 182 186 186 187 188 187 185 185 192 192 196 204 201 198 194 196 203 203 208 211 204 191 212 218 219 253 257 231 247 248 228 208 185 174 173 153
184 183 181 180 180 180 180 183 185 187 190 187 183 186 186 186 191 201 204 197 197 197 200 199 197 204 208 202 191 211 222 216 230 246 245 257 255 241 220 191 190 188 176
175 175 175 178 181 183 184 184 186 188 187 181 183 187 189 191 197 202 200 195 192 194 195 190 194 205 211 206 203 209 223 218 221 222 226 240 225 241 227 197 192 196 183
167 169 174 176 180 183 184 185 186 184 181 180 186 194 200 201 202 199 194 195 194 195 198 197 201 205 208 208 208 207 218 225 227 226 223 224 217 224 217 203 196 179 164
162 168 173 171 172 174 179 181 181 181 181 179 188 202 205 199 195 194 196 197 200 206 202 201 212 212 210 219 211 208 214 213 228 239 234 228 219 214 208 196 189 172 169
173 167 165 168 170 170 172 174 180 183 177 182 194 197 193 189 192 195 196 198 203 205 196 202 209 217 232 228 209 201 214 213 216 235 246 244 233 220 211 195 182 176 176
162 163 164 169 175 176 168 167 174 170 175 183 187 184 183 186 191 190 187 194 197 195 200 211 206 220 234 223 212 202 194 203 212 225 230 248 255 227 216 200 197 202 201
162 166 169 170 172 169 162 159 151 154 171 180 178 180 181 186 187 186 194 199 196 198 205 208 216 226 241 225 217 199 188 200 215 222 220 225 244 223 187 189 199 221 227
166 163 169 168 163 160 153 141 145 153 158 179 178 180 181 182 183 190 199 196 184 197 203 203 212 218 250 230 207 185 187 210 234 235 225 216 230 218 180 165 200 253 266
142 143 147 142 150 167 152 145 155 163 178 188 188 180 176 179 186 192 194 193 189 202 198 203 209 213 236 237 206 184 183 212 246 257 241 224 219 212 183 183 198 238 257
131 131 131 144 164 162 149 156 167 185 194 183 175 176 179 182 183 183 181 178 176 175 182 204 224 228 237 235 212 195 191 203 221 236 245 244 221 214 206 205 219 238 247
128 132 135 150 162 152 154 167 186 192 173 162 166 176 179 181 170 164 169 167 170 179 194 209 234 249 247 239 225 215 216 210 209 227 227 226 217 215 216 221 240 245 243
145 142 149 152 154 158 160 176 197 170 155 153 166 171 166 166 160 163 173 175 181 192 210 214 237 260 259 250 240 229 228 227 225 239 216 204 204 209 231 251 249 237 208
154 157 148 152 167 174 174 178 170 153 145 157 170 164 162 163 162 168 181 186 197 204 210 221 234 248 255 255 250 241 234 229 224 230 208 180 199 215 240 256 254 239 225
176 169 170 174 182 181 184 180 165 152 152 169 167 165 170 170 171 179 198 204 216 212 207 221 222 225 239 248 231 205 210 204 199 165 138 143 280 278 272 266 267 255 245
180 171 178 184 184 175 183 183 170 162 162 171 173 178 179 181 180 180 219 320 265 241 226 228 223 233 234 233 211 204 206 197 165 142 172 206 218 226 235 241 256 260 250